Regional Weather Roundup
Issued by NWS Sterling, VA

Home | Current Version | Previous Version | Text Only | Print | Product List | Glossary On
Versions: 1 2 3 4 5 6 7 8 9 10 11 12 13 14 15 16 17 18 19 20 21 22 23 24 25 26 27 28 29 30 31 32 33 34 35 36 37 38 39 40 41 42 43 44 45 46 47 48 49 50
000
ASUS41 KLWX 310010
RWRLWX

REGIONAL WEATHER ROUNDUP
NATIONAL WEATHER SERVICE BALTIMORE MD/WASHINGTON DC
800 PM EDT SAT AUG 30 2014

Note: "FAIR" indicates few or no clouds below 12,000 feet
with no significant weather and/or obstructions to visibility.
 TC=TEMPERATURE CELSIUS

 * =Non NWS site. Station does not report precipitation (e.g. rain,
    snow, etc.), thunder, or fog.

DCZ001-MDZ009-015-VAZ040>042-051-053>054-310100-
WASHINGTON METRO

CITY           SKY/WX    TMP DP  RH WIND       PRES   REMARKS
WASHINGTON NAT MOCLDY    81  69  67 SE7       30.12R
DULLES         MOCLDY    75  70  83 S5        30.12R
ANDREWS AFB    CLEAR     74  70  86 E6        30.12S
QUANTICO       CLEAR     80  72  76 SE7       30.11S
COLLEGE PARK*  CLOUDY    79  70  73 CALM      30.12S
LEESBURG*      MOCLDY    79  73  83 S6        30.12S
MANASSAS*      PTCLDY    75  73  94 CALM      30.11S
GAITHERSBURG*  CLOUDY    75  70  83 E7        30.16S

$$

MDZ006>007-011-014-310100-
BALTIMORE METRO

CITY           SKY/WX    TMP DP  RH WIND       PRES   REMARKS
BWI AIRPORT    CLOUDY    77  68  73 SE3       30.12S
MD SCIENCE CTR   N/A     79  68  69 MISG      30.13S
MARTIN STATE   CLOUDY    79  73  83 S6        30.14S
ANNAPOLIS      PTCLDY    78  69  73 S8        30.12S
FORT MEADE*    PTCLDY    72  68  88 CALM      30.14S

$$

MDZ012-015-019>023-310100-
MARYLAND EASTERN SHORE

CITY           SKY/WX    TMP DP  RH WIND       PRES   REMARKS
OCEAN CITY     CLEAR     75  67  76 S3        30.17S
SALISBURY      CLEAR     74  64  71 SE5       30.16S
BAY BRIDGE AP*   N/A     77  66  69 SE7       30.13S
CAMBRIDGE*     CLEAR     77  66  69 SE8       30.14S

$$

MDZ017>025-310100-
SOUTHERN MARYLAND

CITY           SKY/WX    TMP DP  RH WIND       PRES   REMARKS
PATUXENT RIVER CLEAR     77  70  79 SE7       30.13S
ST INIGOES     CLEAR     78  69  73 SE7       30.13R
LEONARDTOWN*   CLEAR     77  68  73 SE7       30.15S

$$

MDZ003>005-310100-
NORTH CENTRAL MARYLAND

CITY           SKY/WX    TMP DP  RH WIND       PRES   REMARKS
FREDERICK*     CLOUDY    79  73  83 CALM      30.13F
HAGERSTOWN APT MOCLDY    77  69  76 SE6       30.12S
WESTMINSTER*   PTCLDY    75  70  83 SE5       30.14S

$$

MDZ501>502-310100-
WESTERN MARYLAND

CITY           SKY/WX    TMP DP  RH WIND       PRES   REMARKS
OAKLAND*         N/A     70  70 100 SE6       30.19S
CUMBERLAND*    MOCLDY    73  70  88 CALM      30.14S

$$

VAZ025>031-310100-
SHENANDOAH VALLEY

CITY           SKY/WX    TMP DP  RH WIND       PRES   REMARKS
WINCHESTER*    CLOUDY    77  68  73 S5        30.11S
STAUNTON*      PTCLDY    79  69  70 S8        30.16R

$$

WVZ021-048>050-054>055-310100-
EASTERN WEST VIRGINIA PANHANDLE

CITY           SKY/WX    TMP DP  RH WIND       PRES   REMARKS
MARTINSBURG    CLOUDY    77  68  73 CALM      30.12R
PETERSBURG*    NOT AVBL

$$

VAZ036>039-050-310100-
CENTRAL FOOTHILLS

CITY           SKY/WX    TMP DP  RH WIND       PRES   REMARKS
CHARLOTTESVILL MOCLDY    79  73  82 S5        30.12R
ORANGE*        CLOUDY    79  72  78 CALM      30.13R

$$

VAZ055>057-310100-
NORTH AND CENTRAL PIEDMONT

CITY           SKY/WX    TMP DP  RH WIND       PRES   REMARKS
FREDERICKSBRG* PTCLDY    81  74  80 CALM      30.10R
STAFFORD*      CLEAR     76  76 100 CALM      30.15R

$$

NCZ024-NYZ072-PAZ021-071-VAZ022-071-310100-
OTHER REGIONAL OBSERVATIONS

CITY           SKY/WX    TMP DP  RH WIND       PRES   REMARKS
NEW YORK CITY  CLOUDY    74  63  68 CALM      30.18S
PHILADELPHIA   CLOUDY    76  63  64 SE6       30.16R
PITTSBURGH     MOCLDY    82  68  62 S6        30.03S
ROANOKE        PTCLDY    79  70  74 SE7       30.15R
RICHMOND       PTCLDY    81  72  74 SE7       30.12R
RALEIGH        PTCLDY    82  70  66 SE5       30.14R

$$

ANZ530>537-310100-
MARINE OBSERVATIONS

STATION/POSITION TIME  TEMP    WIND        PRES
                       AIR SEA DIR/SP/G
                 (UTC) (F)     (DEG/KT/KT) (MB)
THOMAS PT LIGHT  0000   78 78  170/ 18/ 19 1020.7F
BALT KEY BRIDGE  0000   85     140/ 10/ 12 1019.7R
COVE POINT       0000   78     180/ 17/ 18 1020.0F
LEWISETTA        0000   78 80  170/  8/ 10 1020.0S
SOLOMONS ISLAND  0000      79                N/A
PINEY POINT      0000          170/ 13/ 15   N/A

$$




USA.gov is the U.S. government's official web portal to all federal, state and local government web resources and services.